| time (UTC) | temp C | wind direction | speed KPH | gust KPH | rain 1hr cm | rain 24hr cm | rain mn cm | humidity % | barometer mb |
| 20260504081541 | 11 | 0 | 0.0 | 9.7 | 0.00 | 0.00 | 0.00 | 81 | 1006.7 |
| 20260504081026 | 11 | 287 | 0.0 | 9.7 | 0.00 | 0.00 | 0.00 | 81 | 1006.9 |
| 20260504080523 | 11 | 0 | 0.0 | 6.4 | 0.00 | 0.00 | 0.00 | 81 | 1006.9 |
| 20260504050522 | 11 | 0 | 0.0 | 0.0 | 0.00 | 0.00 | 0.00 | 73 | 1008.4 |
| 20260504045525 | 11 | 0 | 0.0 | 0.0 | 0.00 | 0.00 | 0.00 | 72 | 1008.4 |
| 20260504045025 | 12 | 0 | 0.0 | 0.0 | 0.00 | 0.00 | 0.00 | 71 | 1008.5 |
| 20260504044538 | 12 | 0 | 0.0 | 0.0 | 0.00 | 0.00 | 0.00 | 71 | 1008.4 |
| 20260504044025 | 12 | 0 | 0.0 | 1.6 | 0.00 | 0.00 | 0.00 | 71 | 1008.4 |
| 20260504043527 | 12 | 0 | 0.0 | 1.6 | 0.00 | 0.00 | 0.00 | 71 | 1008.5 |
| 20260504043048 | 12 | 0 | 0.0 | 0.0 | 0.00 | 0.00 | 0.00 | 71 | 1008.5 |
| 20260504042526 | 12 | 0 | 0.0 | 0.0 | 0.00 | 0.00 | 0.00 | 70 | 1008.5 |
| 20260504042025 | 12 | 0 | 0.0 | 0.0 | 0.00 | 0.00 | 0.00 | 70 | 1008.5 |
| 20260504041544 | 12 | 0 | 0.0 | 0.0 | 0.00 | 0.00 | 0.00 | 69 | 1008.5 |
| 20260504041025 | 12 | 0 | 0.0 | 0.0 | 0.00 | 0.00 | 0.00 | 69 | 1008.6 |
| 20260504040527 | 12 | 0 | 0.0 | 0.0 | 0.00 | 0.00 | 0.00 | 69 | 1008.5 |
| 20260504040046 | 12 | 0 | 0.0 | 0.0 | 0.00 | 0.00 | 0.00 | 69 | 1008.5 |
| 20260504035526 | 12 | 0 | 0.0 | 0.0 | 0.00 | 0.00 | 0.00 | 68 | 1008.7 |
| 20260504035026 | 12 | 0 | 0.0 | 0.0 | 0.00 | 0.00 | 0.00 | 68 | 1008.7 |
| 20260504034547 | 13 | 0 | 0.0 | 0.0 | 0.00 | 0.00 | 0.00 | 68 | 1008.8 |
| 20260504034026 | 13 | 0 | 0.0 | 0.0 | 0.00 | 0.00 | 0.00 | 67 | 1008.8 |
| 20260504033525 | 13 | 0 | 0.0 | 0.0 | 0.00 | 0.00 | 0.00 | 67 | 1008.8 |
| 20260504033046 | 13 | 0 | 0.0 | 0.0 | 0.00 | 0.00 | 0.00 | 67 | 1008.8 |
| 20260504032527 | 13 | 0 | 0.0 | 0.0 | 0.00 | 0.00 | 0.00 | 67 | 1008.8 |
| 20260504032025 | 13 | 0 | 0.0 | 0.0 | 0.00 | 0.00 | 0.00 | 67 | 1008.8 |
| 20260504031544 | 13 | 0 | 0.0 | 0.0 | 0.00 | 0.00 | 0.00 | 67 | 1008.9 |
| 20260504031024 | 13 | 0 | 0.0 | 0.0 | 0.00 | 0.00 | 0.00 | 68 | 1008.9 |
| 20260504030525 | 13 | 0 | 0.0 | 0.0 | 0.00 | 0.00 | 0.00 | 68 | 1008.9 |
| 20260504030040 | 13 | 0 | 0.0 | 0.0 | 0.00 | 0.00 | 0.00 | 68 | 1008.9 |
| 20260504025526 | 13 | 0 | 0.0 | 0.0 | 0.00 | 0.00 | 0.00 | 68 | 1009.0 |
| 20260504025025 | 13 | 0 | 0.0 | 0.0 | 0.00 | 0.00 | 0.00 | 68 | 1009.0 |
| 20260504024547 | 13 | 0 | 0.0 | 0.0 | 0.00 | 0.00 | 0.00 | 67 | 1008.9 |
| 20260504024025 | 13 | 0 | 0.0 | 0.0 | 0.00 | 0.00 | 0.00 | 67 | 1008.9 |
| 20260504023522 | 13 | 0 | 0.0 | 0.0 | 0.00 | 0.00 | 0.00 | 67 | 1009.0 |
| 20260504023037 | 13 | 0 | 0.0 | 0.0 | 0.00 | 0.00 | 0.00 | 67 | 1008.8 |
| 20260504022525 | 13 | 0 | 0.0 | 0.0 | 0.00 | 0.00 | 0.00 | 67 | 1008.9 |
| 20260504022025 | 13 | 0 | 0.0 | 0.0 | 0.00 | 0.00 | 0.00 | 67 | 1008.9 |
| 20260504021542 | 13 | 0 | 0.0 | 0.0 | 0.00 | 0.00 | 0.00 | 66 | 1008.9 |
| 20260504021025 | 13 | 0 | 0.0 | 0.0 | 0.00 | 0.00 | 0.00 | 66 | 1008.9 |
| 20260504020525 | 13 | 0 | 0.0 | 0.0 | 0.00 | 0.00 | 0.00 | 65 | 1008.8 |
| 20260504020043 | 13 | 0 | 0.0 | 0.0 | 0.00 | 0.00 | 0.00 | 65 | 1008.9 |
| 20260504015526 | 13 | 0 | 0.0 | 0.0 | 0.00 | 0.00 | 0.00 | 64 | 1008.7 |
| 20260504015026 | 13 | 0 | 0.0 | 0.0 | 0.00 | 0.00 | 0.00 | 64 | 1008.8 |
| 20260504014542 | 14 | 0 | 0.0 | 0.0 | 0.00 | 0.00 | 0.00 | 63 | 1008.8 |
| 20260504014025 | 14 | 0 | 0.0 | 0.0 | 0.00 | 0.00 | 0.00 | 62 | 1008.7 |
| 20260504013525 | 15 | 0 | 0.0 | 0.0 | 0.00 | 0.00 | 0.00 | 61 | 1008.8 |
| 20260504013054 | 15 | 0 | 0.0 | 0.0 | 0.00 | 0.00 | 0.00 | 60 | 1008.6 |
| 20260504012525 | 15 | 0 | 0.0 | 0.0 | 0.00 | 0.00 | 0.00 | 60 | 1008.6 |
| 20260504012025 | 15 | 0 | 0.0 | 0.0 | 0.00 | 0.00 | 0.00 | 59 | 1008.5 |
| 20260504011546 | 16 | 0 | 0.0 | 0.0 | 0.00 | 0.00 | 0.00 | 58 | 1008.6 |
| 20260504011025 | 16 | 0 | 0.0 | 0.0 | 0.00 | 0.00 | 0.00 | 57 | 1008.5 |
| 20260504010525 | 16 | 0 | 0.0 | 0.0 | 0.00 | 0.00 | 0.00 | 56 | 1008.4 |
| 20260504010045 | 16 | 0 | 0.0 | 0.0 | 0.00 | 0.00 | 0.00 | 55 | 1008.5 |
| 20260504005526 | 17 | 0 | 0.0 | 0.0 | 0.00 | 0.00 | 0.00 | 54 | 1008.4 |
| 20260504005025 | 17 | 0 | 0.0 | 0.0 | 0.00 | 0.00 | 0.00 | 53 | 1008.3 |
| 20260504004541 | 17 | 0 | 0.0 | 0.0 | 0.00 | 0.00 | 0.00 | 53 | 1008.3 |
| 20260504004026 | 17 | 0 | 0.0 | 0.0 | 0.00 | 0.00 | 0.00 | 52 | 1008.3 |
| 20260504003526 | 18 | 0 | 0.0 | 4.8 | 0.00 | 0.00 | 0.00 | 51 | 1008.3 |
| 20260504003041 | 18 | 0 | 0.0 | 9.7 | 0.00 | 0.00 | 0.00 | 51 | 1008.4 |
| 20260504002525 | 18 | 0 | 0.0 | 9.7 | 0.00 | 0.00 | 0.00 | 50 | 1008.4 |
| 20260504002025 | 18 | 0 | 0.0 | 9.7 | 0.00 | 0.00 | 0.00 | 49 | 1008.4 |
| 20260504001543 | 18 | 0 | 0.0 | 11.3 | 0.00 | 0.00 | 0.00 | 49 | 1008.4 |
| 20260504001026 | 18 | 287 | 0.0 | 11.3 | 0.00 | 0.00 | 0.00 | 48 | 1008.3 |
| 20260504000528 | 19 | 0 | 0.0 | 3.2 | 0.00 | 0.00 | 0.00 | 48 | 1008.5 |
| 20260504000046 | 19 | 0 | 0.0 | 9.7 | 0.00 | 0.00 | 0.00 | 48 | 1008.4 |
| 20260503235525 | 19 | 0 | 0.0 | 9.7 | 0.00 | 0.00 | 0.00 | 47 | 1008.4 |
| 20260503235025 | 19 | 0 | 0.0 | 9.7 | 0.00 | 0.00 | 0.00 | 46 | 1008.3 |
| 20260503234543 | 20 | 0 | 0.0 | 11.3 | 0.00 | 0.00 | 0.00 | 46 | 1008.4 |
| 20260503234027 | 20 | 0 | 0.0 | 16.1 | 0.00 | 0.00 | 0.00 | 45 | 1008.3 |
| 20260503233525 | 20 | 0 | 0.0 | 16.1 | 0.00 | 0.00 | 0.00 | 45 | 1008.4 |
| 20260503233039 | 20 | 287 | 1.6 | 12.9 | 0.00 | 0.00 | 0.00 | 44 | 1008.3 |
| 20260503232525 | 20 | 0 | 0.0 | 11.3 | 0.00 | 0.00 | 0.00 | 44 | 1008.4 |
| 20260503232026 | 20 | 0 | 0.0 | 16.1 | 0.00 | 0.00 | 0.00 | 44 | 1008.3 |
| 20260503231541 | 20 | 0 | 3.2 | 16.1 | 0.00 | 0.00 | 0.00 | 43 | 1008.4 |
| 20260503231028 | 20 | 287 | 3.2 | 14.5 | 0.00 | 0.00 | 0.00 | 43 | 1008.5 |
| 20260503230527 | 20 | 0 | 1.6 | 14.5 | 0.00 | 0.00 | 0.00 | 42 | 1008.5 |
| 20260503230049 | 20 | 0 | 1.6 | 14.5 | 0.00 | 0.00 | 0.00 | 42 | 1008.6 |
| 20260503225526 | 20 | 287 | 1.6 | 12.9 | 0.00 | 0.00 | 0.00 | 42 | 1008.6 |
| 20260503225026 | 20 | 287 | 1.6 | 14.5 | 0.00 | 0.00 | 0.00 | 42 | 1008.6 |
| 20260503224550 | 20 | 287 | 1.6 | 14.5 | 0.00 | 0.00 | 0.00 | 41 | 1008.6 |
| 20260503224025 | 20 | 0 | 0.0 | 14.5 | 0.00 | 0.00 | 0.00 | 42 | 1008.7 |
| 20260503223526 | 20 | 287 | 0.0 | 16.1 | 0.00 | 0.00 | 0.00 | 42 | 1008.8 |
| 20260503223042 | 20 | 287 | 3.2 | 16.1 | 0.00 | 0.00 | 0.00 | 41 | 1008.8 |
| 20260503222525 | 20 | 0 | 4.8 | 19.3 | 0.00 | 0.00 | 0.00 | 41 | 1008.8 |
| 20260503222025 | 20 | 287 | 4.8 | 19.3 | 0.00 | 0.00 | 0.00 | 41 | 1008.9 |
| 20260503221551 | 20 | 287 | 4.8 | 16.1 | 0.00 | 0.00 | 0.00 | 41 | 1008.8 |
| 20260503221026 | 19 | 287 | 4.8 | 16.1 | 0.00 | 0.00 | 0.00 | 43 | 1008.9 |
| 20260503220529 | 18 | 0 | 4.8 | 20.9 | 0.00 | 0.00 | 0.00 | 43 | 1008.8 |
| 20260503220037 | 18 | 287 | 6.4 | 20.9 | 0.00 | 0.00 | 0.00 | 42 | 1008.9 |
| 20260503215525 | 18 | 287 | 4.8 | 20.9 | 0.00 | 0.00 | 0.00 | 42 | 1008.8 |
| 20260503215026 | 19 | 287 | 6.4 | 20.9 | 0.00 | 0.00 | 0.00 | 42 | 1009.0 |
| 20260503214545 | 19 | 287 | 6.4 | 19.3 | 0.00 | 0.00 | 0.00 | 42 | 1009.0 |
| 20260503214028 | 18 | 287 | 9.7 | 19.3 | 0.00 | 0.00 | 0.00 | 43 | 1009.0 |
| 20260503213526 | 18 | 287 | 8.0 | 20.9 | 0.00 | 0.00 | 0.00 | 44 | 1008.9 |
| 20260503213045 | 18 | 287 | 8.0 | 20.9 | 0.00 | 0.00 | 0.00 | 45 | 1009.0 |
| 20260503212526 | 18 | 287 | 8.0 | 22.5 | 0.00 | 0.00 | 0.00 | 45 | 1009.0 |
| 20260503212025 | 18 | 287 | 12.9 | 25.7 | 0.00 | 0.00 | 0.00 | 44 | 1009.0 |
| 20260503211541 | 18 | 287 | 9.7 | 25.7 | 0.00 | 0.00 | 0.00 | 44 | 1009.0 |
| 20260503211025 | 18 | 287 | 12.9 | 25.7 | 0.00 | 0.00 | 0.00 | 43 | 1009.2 |
| 20260503210525 | 19 | 287 | 12.9 | 24.1 | 0.00 | 0.00 | 0.00 | 42 | 1009.2 |
| 20260503210040 | 19 | 287 | 11.3 | 24.1 | 0.00 | 0.00 | 0.00 | 42 | 1009.1 |
| 20260503205525 | 19 | 287 | 9.7 | 24.1 | 0.00 | 0.00 | 0.00 | 43 | 1009.1 |
| 20260503205025 | 19 | 287 | 12.9 | 24.1 | 0.00 | 0.00 | 0.00 | 42 | 1009.1 |
| 20260503204538 | 18 | 287 | 9.7 | 22.5 | 0.00 | 0.00 | 0.00 | 45 | 1009.3 |
| 20260503204023 | 18 | 287 | 9.7 | 22.5 | 0.00 | 0.00 | 0.00 | 46 | 1009.4 |
| 20260503203528 | 18 | 287 | 12.9 | 25.7 | 0.00 | 0.00 | 0.00 | 44 | 1009.5 |
| 20260503203044 | 18 | 287 | 11.3 | 25.7 | 0.00 | 0.00 | 0.00 | 44 | 1009.5 |
| 20260503202528 | 18 | 287 | 11.3 | 22.5 | 0.00 | 0.00 | 0.00 | 42 | 1009.5 |
| 20260503202024 | 18 | 287 | 11.3 | 24.1 | 0.00 | 0.00 | 0.00 | 43 | 1009.7 |
| 20260503201541 | 19 | 287 | 12.9 | 24.1 | 0.00 | 0.00 | 0.00 | 41 | 1009.7 |
| 20260503201023 | 19 | 287 | 14.5 | 25.7 | 0.00 | 0.00 | 0.00 | 40 | 1009.6 |
| 20260503200523 | 20 | 287 | 14.5 | 25.7 | 0.00 | 0.00 | 0.00 | 42 | 1009.9 |
| 20260503200040 | 19 | 0 | 11.3 | 24.1 | 0.00 | 0.00 | 0.00 | 43 | 1009.8 |
| 20260503195525 | 19 | 287 | 12.9 | 25.7 | 0.00 | 0.00 | 0.00 | 41 | 1009.7 |
| 20260503195025 | 19 | 287 | 14.5 | 25.7 | 0.00 | 0.00 | 0.00 | 41 | 1009.7 |
| 20260503194541 | 19 | 287 | 14.5 | 29.0 | 0.00 | 0.00 | 0.00 | 42 | 1010.0 |
| 20260503194025 | 18 | 287 | 12.9 | 29.0 | 0.00 | 0.00 | 0.00 | 42 | 1010.0 |
| 20260503193525 | 19 | 287 | 17.7 | 29.0 | 0.00 | 0.00 | 0.00 | 40 | 1009.9 |
| 20260503193049 | 19 | 287 | 16.1 | 30.6 | 0.00 | 0.00 | 0.00 | 41 | 1010.0 |
| 20260503192525 | 19 | 287 | 16.1 | 30.6 | 0.00 | 0.00 | 0.00 | 42 | 1010.2 |
| 20260503192030 | 19 | 287 | 14.5 | 29.0 | 0.00 | 0.00 | 0.00 | 41 | 1010.5 |
| 20260503191604 | 18 | 287 | 16.1 | 29.0 | 0.00 | 0.00 | 0.00 | 40 | 1010.5 |
| 20260503191029 | 19 | 287 | 17.7 | 29.0 | 0.00 | 0.00 | 0.00 | 41 | 1010.4 |
| 20260503190527 | 18 | 287 | 11.3 | 29.0 | 0.00 | 0.00 | 0.00 | 43 | 1010.4 |
| 20260503190041 | 18 | 287 | 17.7 | 27.4 | 0.00 | 0.00 | 0.00 | 42 | 1010.5 |
| 20260503185530 | 18 | 287 | 12.9 | 25.7 | 0.00 | 0.00 | 0.00 | 43 | 1010.5 |
| 20260503185025 | 18 | 287 | 14.5 | 25.7 | 0.00 | 0.00 | 0.00 | 45 | 1010.6 |
| 20260503184541 | 18 | 287 | 14.5 | 30.6 | 0.00 | 0.00 | 0.00 | 44 | 1010.7 |
| 20260503184026 | 18 | 287 | 16.1 | 30.6 | 0.00 | 0.00 | 0.00 | 43 | 1011.0 |
| 20260503183530 | 18 | 287 | 16.1 | 30.6 | 0.00 | 0.00 | 0.00 | 45 | 1011.1 |
| 20260503183042 | 17 | 287 | 12.9 | 24.1 | 0.00 | 0.00 | 0.00 | 45 | 1011.3 |
| 20260503182525 | 17 | 287 | 12.9 | 22.5 | 0.00 | 0.00 | 0.00 | 47 | 1011.5 |
| 20260503182025 | 16 | 287 | 9.7 | 20.9 | 0.00 | 0.00 | 0.00 | 48 | 1011.6 |
| 20260503181549 | 16 | 287 | 11.3 | 22.5 | 0.00 | 0.00 | 0.00 | 49 | 1011.8 |
| 20260503181025 | 16 | 287 | 9.7 | 25.7 | 0.00 | 0.00 | 0.00 | 48 | 1012.0 |
| 20260503180525 | 16 | 287 | 12.9 | 25.7 | 0.00 | 0.00 | 0.00 | 46 | 1012.3 |
| 20260503180043 | 16 | 287 | 16.1 | 25.7 | 0.00 | 0.00 | 0.00 | 44 | 1012.5 |
| 20260503175526 | 16 | 287 | 14.5 | 25.7 | 0.00 | 0.00 | 0.00 | 43 | 1012.6 |
| 20260503175025 | 17 | 287 | 14.5 | 25.7 | 0.00 | 0.00 | 0.00 | 44 | 1012.9 |
| 20260503174547 | 17 | 287 | 14.5 | 25.7 | 0.00 | 0.00 | 0.00 | 45 | 1012.8 |
| 20260503174025 | 16 | 287 | 11.3 | 25.7 | 0.00 | 0.00 | 0.00 | 46 | 1013.1 |
| 20260503173525 | 16 | 287 | 11.3 | 20.9 | 0.00 | 0.00 | 0.00 | 46 | 1013.2 |
| 20260503173046 | 16 | 287 | 8.0 | 20.9 | 0.00 | 0.00 | 0.00 | 46 | 1013.3 |
| 20260503172526 | 16 | 287 | 8.0 | 20.9 | 0.00 | 0.00 | 0.00 | 46 | 1013.8 |
| 20260503172026 | 16 | 287 | 11.3 | 20.9 | 0.00 | 0.00 | 0.00 | 46 | 1013.7 |
| 20260503171541 | 15 | 287 | 11.3 | 20.9 | 0.00 | 0.00 | 0.00 | 46 | 1013.8 |
| 20260503171026 | 15 | 287 | 11.3 | 19.3 | 0.00 | 0.00 | 0.00 | 48 | 1013.8 |
| 20260503170527 | 15 | 287 | 9.7 | 19.3 | 0.00 | 0.00 | 0.00 | 48 | 1013.6 |
| 20260503150521 | 12 | 287 | 8.0 | 17.7 | 0.00 | 0.00 | 0.00 | 58 | 1015.8 |
| 20260503131026 | 10 | 287 | 4.8 | 14.5 | 0.00 | 0.00 | 0.00 | 65 | 1016.9 |
| 20260503130522 | 10 | 287 | 3.2 | 14.5 | 0.00 | 0.00 | 0.00 | 66 | 1016.8 |
| 20260503110525 | 7 | 0 | 3.2 | 11.3 | 0.00 | 0.00 | 0.00 | 69 | 1016.6 |